Theta_e
307 307 306 307 308 308 310 312 311 307 306 307 308 308 309 310 311 313 318 319 322 321 321 317 321 319 321 320 320 320 317 318 319 321 328 339 341 340 340 342 342 342 351 349 347
306 306 306 306 306 308 309 311 313 309 307 308 308 309 310 311 312 316 319 322 323 322 316 318 321 320 318 320 319 320 317 318 320 325 336 333 339 340 343 350 351 351 349 347 345
306 306 306 306 306 307 309 310 313 312 309 309 309 311 312 312 321 321 323 320 322 318 317 322 323 322 319 319 319 319 319 319 320 330 335 336 334 335 335 349 348 349 348 345 344
307 307 306 306 306 307 308 310 313 313 311 310 311 312 313 315 327 324 322 321 319 321 321 322 322 321 321 318 318 319 319 319 319 323 335 335 334 334 337 343 344 344 343 342 340
306 306 306 306 306 306 308 310 312 315 313 312 312 313 314 322 319 323 320 321 321 320 321 322 322 320 320 319 319 319 320 320 322 321 324 333 333 331 336 342 341 341 341 340 338
306 306 306 306 306 306 309 310 312 316 314 314 314 313 317 318 325 323 320 321 321 321 322 322 322 321 319 320 321 320 322 321 323 323 326 329 329 329 340 340 341 340 338 336 333
306 305 305 306 306 306 309 310 312 317 314 315 315 314 321 319 325 319 323 322 322 323 323 324 324 323 322 322 322 322 323 323 322 325 326 330 330 328 331 336 336 335 334 333 326
306 305 305 306 306 307 309 311 312 316 315 315 314 319 322 319 321 323 323 323 323 323 324 324 323 321 323 321 323 322 323 322 320 326 327 328 330 329 328 332 333 333 333 330 327
305 305 305 306 306 307 311 311 312 317 316 315 315 320 321 323 323 323 323 323 324 323 323 323 323 322 321 322 322 324 321 322 321 323 327 329 330 328 327 328 331 330 330 329 327
304 304 305 306 307 307 312 312 316 320 318 319 320 322 323 324 324 324 324 324 323 322 322 322 320 319 318 320 322 325 321 319 321 322 324 325 325 324 325 328 330 329 329 329 328
304 305 305 306 307 307 312 318 322 323 322 322 323 325 324 326 324 322 323 324 323 324 322 322 321 318 319 321 322 324 324 324 324 322 324 322 323 323 323 327 327 327 328 328 328
304 304 305 307 307 310 314 320 321 320 319 323 324 325 325 325 324 323 323 323 323 323 323 323 322 322 323 323 324 323 323 323 325 326 323 323 324 324 325 326 327 327 327 328 329
303 304 305 307 308 318 317 321 320 320 320 320 320 325 326 324 325 325 323 323 324 323 323 323 325 326 327 325 326 323 325 325 325 325 326 325 326 326 324 324 326 328 327 328 329
303 303 304 305 313 310 317 320 319 321 322 320 320 319 321 322 324 325 325 323 324 324 323 323 324 325 325 326 326 324 324 326 327 323 324 325 323 325 324 323 324 327 326 327 328
303 303 303 303 308 314 319 320 319 322 330 326 321 321 320 321 324 323 325 323 324 323 323 323 323 324 326 326 325 324 326 326 327 324 323 324 323 323 323 325 326 325 327 326 327
302 302 302 304 310 311 316 319 320 325 329 327 323 322 320 321 322 323 324 324 323 322 322 322 323 323 324 325 324 324 326 325 326 322 323 323 323 322 322 327 327 327 327 327 326
301 301 301 303 309 311 316 320 323 327 325 326 324 323 322 322 322 322 324 323 321 323 324 324 323 323 325 324 322 324 323 324 325 324 325 327 327 323 327 328 327 325 326 327 334
300 300 304 308 311 315 315 323 326 326 324 326 325 324 322 321 322 322 324 323 323 322 323 324 325 324 324 323 322 325 324 327 332 330 327 328 329 332 328 326 325 324 327 329 331
298 302 308 310 316 316 320 325 323 325 326 327 326 326 325 323 323 322 323 324 324 323 324 327 328 327 327 323 321 323 326 322 326 327 328 326 327 331 330 328 325 326 328 331 331
302 306 313 313 314 319 322 324 322 321 322 324 326 326 326 324 324 321 323 326 327 326 322 325 327 327 327 322 322 322 323 324 330 329 329 327 328 336 333 329 329 326 329 331 330
306 316 319 316 319 321 324 322 320 320 321 325 326 326 324 326 326 327 325 327 328 326 324 324 327 327 326 326 323 323 321 322 324 329 329 331 331 333 333 332 331 328 327 331 330
308 316 318 319 321 321 321 322 319 321 323 325 324 324 325 327 329 329 332 331 328 327 331 330 331 329 327 325 327 327 329 330 333 335 332 336 334 332 332 329 327 327 331 329 330
308 315 319 319 322 319 320 322 322 323 325 325 325 324 324 325 329 329 329 329 326 329 329 327 331 326 326 325 328 329 331 331 332 330 337 333 334 332 331 330 329 331 331 330 325
308 317 316 319 318 320 320 323 328 326 324 323 324 325 324 325 324 327 326 327 325 324 329 329 331 334 334 332 330 329 331 331 331 333 334 333 334 331 330 330 332 332 330 327 323
307 315 320 322 318 319 320 321 321 328 323 322 324 325 325 328 326 325 326 324 326 329 326 325 329 331 330 329 328 328 331 330 331 330 330 327 329 332 330 331 332 331 330 324 322
308 314 314 316 321 321 322 324 324 323 326 326 324 324 324 326 327 330 333 333 326 326 327 329 329 330 332 330 328 328 327 326 329 328 328 330 330 329 329 327 330 330 330 324 321
310 311 314 315 316 316 318 324 324 322 322 322 327 326 329 329 327 329 330 330 331 332 331 331 331 333 332 329 328 327 326 326 328 328 327 330 327 326 332 331 331 332 328 323 320
Wind_Speed
27 26 26 26 24 26 19 16 10 8 8 8 8 8 10 12 13 12 7 9 10 16 9 9 12 13 19 8 10 4 1 9 11 11 3 11 9 3 8 10 3 6 15 15 29
27 27 26 26 25 26 21 18 12 9 8 7 7 8 9 12 14 13 21 16 8 9 8 13 8 15 4 7 5 4 2 9 9 12 7 8 9 10 12 21 18 16 16 20 26
27 28 28 27 26 27 23 19 13 9 8 7 7 7 7 10 4 7 10 19 13 7 8 12 19 8 7 7 10 7 10 12 15 6 4 2 5 10 11 14 21 21 18 14 17
27 27 28 28 27 27 25 19 14 10 7 7 7 7 6 3 2 3 12 14 10 6 6 9 8 6 4 9 10 6 13 14 11 6 3 5 10 3 13 16 21 19 16 11 8
28 28 28 28 28 28 25 19 15 10 7 6 7 7 4 3 9 8 14 13 9 8 11 8 9 7 9 7 9 9 8 8 8 8 8 5 8 9 10 22 20 17 13 10 8
30 29 29 29 30 30 26 18 13 9 5 6 6 7 2 5 5 14 17 14 9 12 14 17 10 8 9 8 6 10 7 8 4 6 4 2 7 11 16 19 18 14 11 9 8
31 31 31 30 31 32 27 17 12 9 4 4 4 3 5 13 10 13 15 13 13 17 13 21 21 4 9 10 8 8 4 1 5 4 4 4 5 8 12 16 16 13 10 9 9
32 32 32 31 31 33 27 15 11 7 4 4 3 2 7 13 19 15 16 18 17 20 13 14 16 7 4 8 10 8 3 3 9 3 3 9 4 3 11 17 15 13 9 8 10
33 33 33 33 31 34 24 13 10 5 4 4 2 4 8 11 11 25 18 18 20 8 11 10 5 4 9 6 7 2 3 7 9 10 7 7 4 10 7 10 11 11 10 9 9
33 34 35 34 31 33 21 13 8 4 4 4 9 5 8 10 16 14 19 18 10 8 6 5 2 3 6 1 6 7 8 9 9 8 10 7 7 8 6 10 11 11 10 10 11
33 35 35 35 32 30 21 5 1 1 5 8 8 6 14 16 17 14 16 13 9 2 6 7 3 7 12 11 12 11 7 10 9 10 12 10 8 10 9 12 10 10 11 11 13
33 34 36 35 34 20 13 3 6 8 8 14 20 20 30 19 7 9 17 8 6 6 7 5 9 13 13 13 11 10 10 9 9 7 8 10 9 9 6 11 15 15 12 13 12
32 33 36 36 27 6 16 19 7 16 4 10 20 19 19 14 9 8 6 9 6 9 10 9 13 12 16 11 9 9 3 6 6 9 2 6 2 4 8 5 11 15 15 10 15
31 32 32 37 7 23 10 16 14 12 3 7 9 15 18 11 8 13 20 8 7 11 11 9 14 15 7 3 6 6 8 6 10 7 2 3 5 6 7 11 8 14 12 11 11
32 31 31 27 18 9 11 19 14 4 3 5 9 11 11 21 2 15 19 9 12 12 7 10 10 8 5 2 5 8 1 5 6 6 6 9 3 6 8 6 9 12 15 11 11
33 32 33 17 14 20 18 21 13 0 7 3 5 5 8 13 18 6 10 7 6 11 12 8 10 4 4 6 8 8 3 8 6 4 4 6 4 8 7 5 7 2 11 10 5
34 33 32 19 8 12 13 8 0 4 7 7 9 9 9 10 14 13 13 8 7 5 6 8 14 8 4 2 8 4 7 3 4 3 5 4 4 13 2 5 6 11 10 16 21
36 34 23 22 16 11 11 3 4 10 10 8 4 13 13 10 12 14 9 9 8 8 4 8 7 12 8 9 9 5 8 6 5 2 5 5 3 5 6 8 8 8 8 18 20
37 27 14 20 9 9 0 4 6 5 7 8 3 4 7 11 9 11 12 10 9 11 9 4 8 7 10 7 10 5 2 10 6 4 3 4 7 2 7 7 7 5 12 18 22
26 12 11 14 18 9 2 5 7 12 17 14 5 3 5 9 6 13 11 12 13 14 11 9 6 8 11 9 6 7 4 2 1 2 5 2 5 2 8 10 9 3 10 18 20
5 4 4 17 11 2 4 6 9 17 16 7 3 8 11 12 15 4 12 2 9 15 10 11 6 6 6 2 7 1 3 3 4 5 5 2 4 3 3 5 8 19 6 18 19
7 3 16 17 3 4 7 6 7 18 19 4 1 6 8 11 9 6 5 6 6 5 4 0 3 6 9 8 3 8 3 5 5 6 1 2 3 7 10 7 6 5 19 11 18
4 4 11 15 4 6 9 16 20 19 11 6 4 6 8 6 5 7 12 1 5 5 3 3 4 2 8 7 7 6 3 5 4 2 4 2 5 9 13 14 19 7 12 14 19
3 3 3 2 4 6 5 8 10 10 2 7 6 4 7 7 6 5 6 5 7 5 7 5 2 3 6 6 3 4 6 8 7 3 4 5 6 5 4 9 7 16 15 18 16
3 5 5 2 5 9 7 7 12 8 6 1 6 9 7 5 7 6 5 7 7 8 3 5 2 1 5 8 10 5 5 8 7 10 9 15 17 4 5 6 3 3 10 14 17
3 4 5 7 8 7 6 5 9 11 5 5 7 9 8 5 6 5 6 7 3 3 4 2 2 1 5 8 9 13 12 6 9 7 6 8 6 8 10 5 5 6 13 15 14
7 12 4 4 6 6 5 7 7 8 9 9 4 2 3 5 8 7 4 5 5 5 2 3 3 2 3 6 8 7 7 8 3 5 9 7 9 5 7 8 14 15 13 15 16
Wind_Direction
12 10 8 3 1 359 353 350 326 306 290 285 285 288 293 298 299 288 247 241 244 238 277 270 254 243 252 270 278 273 300 277 281 292 92 180 119 269 139 133 213 156 126 135 127
8 7 5 1 358 356 352 349 336 314 296 287 288 293 304 313 310 261 247 254 244 208 237 230 247 224 243 246 264 159 205 247 273 303 205 130 105 148 134 119 106 104 116 146 154
4 3 1 360 356 352 348 345 339 320 303 292 288 294 313 324 305 246 237 231 232 214 221 273 287 263 234 235 246 252 232 250 266 236 122 27 99 154 138 123 138 139 147 171 185
1 359 357 357 354 350 345 339 336 326 304 293 288 292 311 330 307 168 162 185 187 201 241 276 284 286 262 244 256 230 244 241 264 320 154 181 120 86 104 143 141 141 154 171 194
357 355 354 353 352 348 342 335 331 324 304 291 287 300 315 223 251 199 175 173 186 210 236 239 277 241 252 242 266 245 255 273 284 327 333 107 123 116 109 127 133 141 156 158 192
354 352 351 350 349 346 340 331 326 321 295 284 286 303 303 256 215 187 176 180 193 213 255 245 246 246 249 256 251 238 234 262 312 276 304 20 114 94 123 126 130 136 146 165 133
353 350 348 346 346 344 338 326 321 313 284 271 286 301 262 245 183 171 173 199 203 221 242 279 345 19 331 322 280 291 318 244 300 260 275 130 85 132 140 131 138 150 159 167 139
350 348 346 343 343 341 336 321 316 304 265 265 264 150 254 256 254 195 185 211 233 244 280 310 354 347 321 299 321 293 351 318 263 199 307 91 264 327 160 145 153 154 157 155 145
348 346 343 341 340 338 332 318 308 292 263 261 245 201 264 267 219 210 190 216 232 220 271 284 21 287 316 317 320 291 245 254 272 190 182 131 199 260 189 145 154 155 161 158 152
346 345 341 338 338 337 328 316 299 273 267 278 261 277 262 232 199 224 198 219 242 206 226 225 217 228 305 327 246 240 220 244 232 224 191 177 189 227 191 155 166 168 171 174 168
344 343 340 335 335 336 331 341 15 355 240 215 202 236 292 216 209 199 206 213 252 225 224 243 196 229 234 242 243 268 275 273 284 231 171 193 191 213 236 163 173 181 187 186 180
342 342 338 333 333 332 316 254 8 303 292 240 245 253 264 270 168 190 204 190 204 251 244 279 232 231 235 246 245 260 266 286 303 342 134 188 210 223 203 188 184 192 193 192 187
339 341 339 333 331 356 317 292 335 336 283 268 235 233 239 251 203 201 215 194 195 226 252 217 250 235 234 254 285 257 263 304 292 312 21 126 245 251 280 239 201 196 195 185 180
336 337 338 337 331 332 298 355 336 3 305 260 201 230 229 237 222 218 201 203 210 239 231 238 258 262 266 273 318 326 295 346 311 300 216 113 260 264 248 256 240 200 189 192 185
331 332 332 340 296 304 309 344 333 339 324 173 174 188 182 204 164 207 222 199 220 224 225 247 262 273 269 182 288 249 343 354 2 9 50 328 72 277 329 294 270 216 188 188 182
327 324 327 336 297 280 315 317 312 305 248 231 116 162 179 200 213 236 203 193 189 256 274 262 281 279 250 195 227 252 80 21 2 43 7 293 345 302 281 288 335 224 154 178 171
323 317 312 289 240 316 337 322 323 229 278 184 162 180 201 202 201 220 197 190 189 211 269 292 277 271 228 327 320 254 79 12 346 345 233 223 280 242 266 86 54 77 79 94 111
322 315 301 268 271 301 290 340 242 238 245 311 239 193 182 212 194 213 195 202 202 232 256 213 281 231 212 175 203 244 138 139 232 241 256 211 251 314 106 64 49 54 92 85 95
323 321 278 255 239 235 332 221 214 231 318 2 233 266 297 201 166 198 222 186 207 198 220 284 272 319 312 157 156 263 192 200 190 278 314 246 299 12 22 42 73 68 94 95 99
324 303 266 209 210 178 194 249 252 280 306 313 317 295 271 278 227 187 199 198 215 213 182 233 260 284 314 121 175 171 211 25 356 180 247 286 325 255 1 351 1 88 111 109 105
307 276 208 156 147 143 218 230 254 263 262 297 324 314 310 309 321 256 210 207 224 218 187 200 161 284 357 259 169 38 298 273 144 139 190 190 266 175 19 340 329 335 161 127 122
309 269 172 153 141 207 229 242 246 277 290 177 36 288 296 308 314 310 91 41 22 42 38 192 175 202 233 268 103 80 120 71 87 336 355 195 268 30 358 358 146 255 101 98 111
295 277 211 181 223 235 258 245 249 265 272 168 184 261 277 290 324 353 85 339 55 57 71 331 335 63 338 340 19 65 100 86 113 91 77 109 256 38 16 349 333 88 125 119 102
284 281 214 186 254 284 312 293 283 258 285 316 332 253 277 303 287 306 331 168 134 118 165 86 102 108 191 244 147 208 179 138 110 88 279 229 261 317 89 316 315 326 96 95 95
242 257 341 238 235 233 215 278 302 302 154 52 343 311 268 315 288 282 257 286 124 170 120 104 154 344 303 306 314 298 212 172 163 200 204 253 245 124 76 17 46 14 333 97 105
292 348 346 299 308 308 301 237 261 287 311 206 192 251 285 283 270 305 18 11 264 231 129 109 182 295 303 305 309 305 308 281 191 209 227 248 264 157 168 108 12 270 204 132 108
335 327 298 292 314 317 260 288 292 281 302 279 328 143 346 12 6 352 36 15 0 31 45 110 104 48 269 315 321 292 274 281 185 178 211 215 236 205 187 170 183 204 230 128 111